Date String (YYYY-MM-DD hh:mm:ss) UTC,Instrument flags,absolute air pressure of the measurement (hPa),sample flow rate (lpm),inlet stack bypass flow (lpm),air temperature of the measurement (°C),ambient temperature measured by the external sensor (°C),aerosol sample conditioner tube jacket temperature (°C),OPC LED temperature (°C),internal box temperature (°C),relative humidity of the measurement (%),span deviation,mass concentration of particles derived from Lorenz-Mie calculation of OPC scattering (μg/m³),mass concentration of particles derived from Lorenz-Mie calculation of OPC scattering (μg/m³),mass concentration of particles derived from Lorenz-Mie calculation of OPC scattering (μg/m³)
DateTimeUTC,F1_M11,P_M11,Q1_M11,Q2_M11,T1_M11,T2_M11,T3_M11,T4_M11,T5_M11,U1_M11,ZSPAN_M11,X0_M11,X2_M11,X1_M11
2024-02-03 12:00:00,SystemResetWarning,0813.3,4.99,000.00,023.2,022.5,000.0,031.6,025.0,25.3,0000.0,0006.02,0004.71,0004.57
2024-02-03 12:01:00,SystemResetWarning,0813.3,5.00,000.00,023.2,022.5,000.0,031.6,025.0,25.2,0000.0,0006.13,0004.73,0004.58
2024-02-03 12:02:00,SystemResetWarning,0813.3,5.00,000.00,023.2,022.5,000.0,031.6,025.0,25.2,0000.0,0006.31,0004.77,0004.60
2024-02-03 12:03:00,SystemResetWarning,0813.3,5.01,000.00,023.2,022.5,000.0,031.6,025.0,25.3,0000.0,0006.42,0004.81,0004.62
2024-02-03 12:04:00,SystemResetWarning,0813.3,5.01,000.00,023.2,022.5,000.0,031.6,025.0,25.3,0000.0,0006.50,0004.84,0004.64
2024-02-03 12:05:00,SystemResetWarning,0813.3,5.00,000.00,023.2,022.5,000.0,031.6,024.9,25.3,0000.0,0006.58,0004.86,0004.67
2024-02-03 12:06:00,SystemResetWarning,0813.4,4.99,000.00,023.2,022.5,000.0,031.6,024.9,25.3,0000.0,0006.63,0004.88,0004.69
2024-02-03 12:07:00,SystemResetWarning,0813.3,4.99,000.00,023.2,022.5,000.0,031.6,024.9,25.3,0000.0,0006.77,0004.92,0004.73
2024-02-03 12:08:00,SystemResetWarning,0813.4,5.00,000.00,023.2,022.5,000.0,031.6,024.9,25.3,0000.0,0006.91,0004.96,0004.77
2024-02-03 12:09:00,SystemResetWarning,0813.3,5.00,000.00,023.2,022.5,000.0,031.6,024.9,25.3,0000.0,0007.29,0005.01,0004.81
2024-02-03 12:10:00,SystemResetWarning,0813.3,5.01,000.00,023.2,022.5,000.0,031.6,024.9,25.4,0000.0,0007.34,0005.05,0004.85
2024-02-03 12:11:00,SystemResetWarning,0813.3,5.01,000.00,023.2,022.5,000.0,031.6,024.9,25.4,0000.0,0007.38,0005.08,0004.90
2024-02-03 12:12:00,SystemResetWarning,0813.3,4.98,000.00,023.2,022.5,000.0,031.6,024.9,25.4,0000.0,0007.47,0005.13,0004.94
2024-02-03 12:13:00,SystemResetWarning,0813.3,5.00,000.00,023.2,022.5,000.0,031.6,024.9,25.4,0000.0,0007.70,0005.18,0004.98
2024-02-03 12:14:00,SystemResetWarning,0813.2,5.01,000.00,023.2,022.5,000.0,031.6,024.9,25.4,0000.0,0007.68,0005.20,0005.02
2024-02-03 12:15:00,SystemResetWarning,0813.2,5.01,000.00,023.2,022.5,000.0,031.6,024.9,25.4,0000.0,0007.70,0005.23,0005.06
2024-02-03 12:16:00,SystemResetWarning,0813.2,5.00,000.00,023.2,022.5,000.0,031.6,024.9,25.4,0000.0,0007.76,0005.28,0005.10
2024-02-03 12:17:00,SystemResetWarning,0813.2,4.98,000.00,023.2,022.5,000.0,031.6,024.9,25.4,0000.0,0007.86,0005.35,0005.14
2024-02-03 12:18:00,SystemResetWarning,0813.2,5.00,000.00,023.2,022.5,000.0,031.6,024.9,25.4,0000.0,0007.84,0005.36,0005.16
2024-02-03 12:19:00,SystemResetWarning,0813.2,5.01,000.00,023.2,022.5,000.0,031.6,024.9,25.4,0000.0,0008.01,0005.38,0005.17
2024-02-03 12:20:00,SystemResetWarning,0813.2,5.01,000.00,023.2,022.5,000.0,031.6,024.9,25.4,0000.0,0007.97,0005.41,0005.20
2024-02-03 12:21:00,SystemResetWarning,0813.2,5.01,000.00,023.2,022.5,000.0,031.6,024.9,25.4,0000.0,0007.92,0005.43,0005.23
2024-02-03 12:22:00,SystemResetWarning,0813.3,4.99,000.00,023.2,022.5,000.0,031.6,024.9,25.5,0000.0,0008.23,0005.45,0005.26
2024-02-03 12:23:00,SystemResetWarning,0813.3,4.99,000.00,023.2,022.5,000.0,031.6,024.9,25.5,0000.0,0008.66,0005.47,0005.28
2024-02-03 12:24:00,SystemResetWarning,0813.3,5.00,000.00,023.2,022.4,000.0,031.6,024.9,25.5,0000.0,0008.39,0005.48,0005.31
2024-02-03 12:25:00,SystemResetWarning,0813.3,5.02,000.00,023.2,022.4,000.0,031.6,024.9,25.5,0000.0,0008.45,0005.51,0005.33
2024-02-03 12:26:00,SystemResetWarning,0813.3,5.00,000.00,023.2,022.4,000.0,031.6,024.9,25.5,0000.0,0008.47,0005.52,0005.33
2024-02-03 12:27:00,SystemResetWarning,0813.3,4.99,000.00,023.2,022.4,000.0,031.6,024.9,25.5,0000.0,0008.43,0005.50,0005.33
2024-02-03 12:28:00,SystemResetWarning,0813.3,4.99,000.00,023.2,022.4,000.0,031.6,024.9,25.5,0000.0,0008.37,0005.49,0005.34
2024-02-03 12:29:00,SystemResetWarning,0813.2,5.01,000.00,023.2,022.4,000.0,031.6,024.9,25.5,0000.0,0008.35,0005.49,0005.34
2024-02-03 12:30:00,SystemResetWarning,0813.2,5.02,000.00,023.1,022.4,000.0,031.6,024.9,25.5,0000.0,0008.65,0005.50,0005.35
2024-02-03 12:31:00,SystemResetWarning,0813.2,4.98,000.00,023.1,022.4,000.0,031.6,024.9,25.5,0000.0,0008.54,0005.49,0005.34
2024-02-03 12:32:00,SystemResetWarning,0813.2,4.99,000.00,023.1,022.4,000.0,031.6,024.9,25.5,0000.0,0008.62,0005.50,0005.34
2024-02-03 12:33:00,SystemResetWarning,0813.2,5.00,000.00,023.1,022.4,000.0,031.6,024.9,25.5,0000.0,0008.40,0005.52,0005.34
2024-02-03 12:34:00,SystemResetWarning,0813.2,5.00,000.00,023.1,022.4,000.0,031.6,024.9,25.5,0000.0,0007.89,0005.50,0005.32
2024-02-03 12:35:00,SystemResetWarning,0813.2,5.00,000.00,023.1,022.4,000.0,031.6,024.9,25.6,0000.0,0007.92,0005.51,0005.31
2024-02-03 12:36:00,SystemResetWarning,0813.2,5.01,000.00,023.1,022.4,000.0,031.6,024.9,25.6,0000.0,0007.91,0005.51,0005.31
2024-02-03 12:37:00,SystemResetWarning,0813.2,5.00,000.00,023.1,022.4,000.0,031.6,024.9,25.9,0000.0,0008.07,0005.51,0005.32
2024-02-03 12:38:00,SystemResetWarning,0813.2,5.00,000.00,023.1,022.4,000.0,031.6,024.9,26.4,0000.0,0008.15,0005.52,0005.33
2024-02-03 12:39:00,SystemResetWarning,0813.2,5.00,000.00,023.1,022.4,000.0,031.6,024.9,25.9,0000.0,0008.12,0005.50,0005.32
2024-02-03 12:40:00,SystemResetWarning,0813.2,5.00,000.00,023.1,022.4,000.0,031.6,024.9,25.8,0000.0,0008.13,0005.50,0005.31
2024-02-03 12:41:00,SystemResetWarning,0813.2,5.00,000.00,023.1,022.4,000.0,031.5,024.9,25.8,0000.0,0007.74,0005.47,0005.29
2024-02-03 12:42:00,SystemResetWarning,0813.1,5.00,000.00,023.1,022.4,000.0,031.5,024.9,25.8,0000.0,0007.55,0005.46,0005.28
2024-02-03 12:43:00,SystemResetWarning,0813.2,5.00,000.00,023.1,022.4,000.0,031.5,024.9,25.8,0000.0,0007.47,0005.43,0005.27
2024-02-03 12:44:00,SystemResetWarning,0813.2,5.00,000.00,023.1,022.4,000.0,031.5,024.9,25.8,0000.0,0007.43,0005.40,0005.24
2024-02-03 12:45:00,SystemResetWarning,0813.2,5.00,000.00,023.1,022.4,000.0,031.5,024.9,25.7,0000.0,0007.41,0005.39,0005.22
2024-02-03 12:46:00,SystemResetWarning,0813.2,5.00,000.00,023.1,022.4,000.0,031.5,024.9,25.7,0000.9,0007.32,0005.34,0005.20
2024-02-03 12:47:00,SystemResetWarning,0813.2,5.00,000.00,023.1,022.4,000.0,031.5,024.9,25.7,0000.0,0007.25,0005.30,0005.18
2024-02-03 12:48:00,SystemResetWarning,0813.3,4.99,000.00,023.1,022.4,000.0,031.5,024.9,25.7,0000.0,0006.89,0005.27,0005.15
2024-02-03 12:49:00,SystemResetWarning,0813.4,5.00,000.00,023.1,022.4,000.0,031.5,024.9,25.7,0000.0,0006.75,0005.26,0005.14
2024-02-03 12:50:00,SystemResetWarning,0813.3,4.99,000.00,023.1,022.4,000.0,031.5,024.9,25.7,0000.0,0006.80,0005.27,0005.15
2024-02-03 12:51:00,SystemResetWarning,0813.3,5.00,000.00,023.1,022.4,000.0,031.6,024.9,25.7,0000.0,0006.84,0005.30,0005.17
2024-02-03 12:52:00,SystemResetWarning,0813.4,5.01,000.00,023.1,022.4,000.0,031.5,024.9,25.6,0000.0,0006.90,0005.33,0005.19
2024-02-03 12:53:00,SystemResetWarning,0813.3,5.00,000.00,023.1,022.4,000.0,031.5,024.9,25.6,0000.0,0007.67,0005.37,0005.22
2024-02-03 12:54:00,SystemResetWarning,0813.3,5.00,000.00,023.1,022.4,000.0,031.5,024.9,25.6,0000.0,0007.82,0005.42,0005.26
2024-02-03 12:55:00,SystemResetWarning,0813.3,4.99,000.00,023.1,022.4,000.0,031.5,024.9,25.6,0000.0,0007.90,0005.46,0005.31
2024-02-03 12:56:00,SystemResetWarning,0813.3,5.01,000.00,023.1,022.4,000.0,031.5,024.9,25.6,0000.0,0007.96,0005.51,0005.36
2024-02-03 12:57:00,SystemResetWarning,0813.3,5.00,000.00,023.1,022.4,000.0,031.5,024.9,25.6,0000.0,0008.03,0005.58,0005.42
2024-02-03 12:58:00,SystemResetWarning,0813.3,5.01,000.00,023.1,022.4,000.0,031.5,024.9,25.7,0000.0,0008.12,0005.64,0005.47
2024-02-03 12:59:00,SystemResetWarning,0813.3,5.00,000.00,023.1,022.4,000.0,031.5,024.9,25.7,0000.0,0008.21,0005.70,0005.51
